Wetbulb
58.94 58.51 58.34 57.52 57.36 57.55 57.55 57.41 57.75 57.18 57.94 58.09 58.36 60.00 60.67 61.31 61.36 59.45 52.13 59.84 60.32 73.02 77.75 72.26 71.29 69.95 70.54 68.08 68.92 68.45 61.88 58.87 58.69 59.32 61.47 66.38 64.78 67.09 68.55 66.25 66.74 67.34 66.37 68.43 71.07
58.90 58.28 58.05 57.71 57.58 57.54 57.34 57.31 57.27 57.08 57.16 57.30 57.92 59.67 60.69 61.37 58.69 55.27 65.47 68.46 73.40 77.58 71.82 69.12 68.34 69.96 66.03 65.56 65.68 63.85 61.07 59.35 63.57 63.40 62.97 65.71 65.93 65.87 64.96 64.83 64.74 66.43 69.19 69.84 70.45
58.34 58.22 57.94 57.52 57.34 57.23 57.08 57.02 56.82 56.71 56.79 56.72 57.76 59.37 60.79 61.37 55.95 56.67 69.83 74.18 77.52 76.49 73.55 72.63 71.49 66.67 63.38 65.02 63.53 62.35 59.99 62.53 63.13 65.41 66.51 65.66 65.80 67.17 65.11 63.21 65.22 65.27 67.05 68.27 68.87
57.94 57.75 57.36 57.22 57.33 57.09 56.97 56.79 56.77 56.92 56.82 57.27 57.67 59.72 61.05 59.89 57.09 66.28 73.66 77.39 78.57 74.27 72.79 71.05 69.11 62.01 60.47 61.15 64.05 60.02 62.94 63.13 63.85 65.69 66.36 65.38 67.11 64.27 65.70 65.68 67.94 68.08 69.10 68.57 66.96
57.53 57.39 57.31 57.06 56.95 56.78 56.53 56.40 56.45 56.62 56.94 56.95 58.53 60.28 60.14 53.19 54.71 70.06 75.63 77.58 75.11 72.98 70.68 69.11 67.03 63.29 59.43 60.68 62.33 60.92 62.49 64.22 65.47 65.45 66.34 67.17 65.13 65.14 64.85 67.40 68.11 68.27 68.72 67.54 67.26
57.06 56.88 57.21 57.13 56.87 56.34 56.33 55.90 56.00 56.18 56.77 57.74 59.64 60.58 57.60 53.86 66.78 70.41 73.26 74.49 74.04 71.71 70.21 68.91 67.79 66.56 62.57 62.01 61.77 63.43 63.51 63.95 66.20 65.83 66.44 65.03 65.09 65.52 65.22 67.46 66.59 66.68 67.32 67.57 68.02
56.74 56.82 56.57 56.78 56.39 56.10 55.71 55.16 55.63 56.16 56.99 58.59 59.82 60.81 56.49 54.55 69.35 71.14 69.98 72.52 73.65 70.28 68.17 68.18 68.15 65.50 65.53 62.25 65.08 63.90 60.46 63.76 65.61 66.21 65.27 66.63 62.85 61.73 65.63 66.64 65.59 66.53 67.50 67.83 68.46
56.58 56.43 56.53 56.38 56.30 55.41 55.03 54.70 55.15 56.73 58.22 59.13 60.26 60.38 50.61 61.31 73.28 71.13 71.35 70.73 72.78 71.20 70.80 71.06 70.03 66.99 65.87 66.20 61.82 59.70 60.97 59.25 63.67 65.46 64.95 63.84 58.41 62.73 65.60 64.57 64.74 65.65 65.52 66.37 67.55
56.47 56.08 55.90 55.90 55.75 54.76 54.15 54.76 57.35 58.70 59.71 60.24 58.02 56.02 50.32 67.47 66.19 70.17 71.51 67.94 69.13 68.94 68.89 70.34 69.19 65.11 62.29 58.53 55.71 57.69 54.62 57.50 60.27 64.83 64.27 63.11 60.35 63.34 65.20 63.38 63.14 65.12 65.21 65.31 66.51
56.47 55.57 55.51 55.18 54.91 54.27 54.49 56.35 60.55 59.86 59.82 60.76 60.48 53.97 55.65 57.83 63.50 68.07 68.07 66.70 64.28 63.48 62.09 63.34 65.09 62.45 60.64 59.59 51.61 53.23 53.79 55.69 58.23 62.50 63.52 61.65 61.23 63.51 64.05 62.95 62.61 64.08 64.75 65.30 64.83
55.87 55.24 55.32 54.85 54.42 54.04 54.59 57.72 56.22 54.73 55.89 51.24 51.75 52.34 55.32 62.83 65.99 62.91 66.70 64.45 67.40 64.86 60.61 63.77 60.84 57.89 59.39 59.69 59.05 57.48 55.37 54.44 56.42 62.54 62.05 61.08 61.78 62.89 63.97 63.26 61.89 62.67 63.53 64.74 65.86
55.82 54.87 55.06 54.15 53.65 53.55 53.04 55.85 56.55 58.03 54.73 54.62 53.74 54.80 56.55 61.74 60.17 61.97 65.19 62.25 62.86 59.90 61.76 60.08 57.01 60.42 61.41 60.12 58.13 57.00 54.75 54.29 56.41 61.81 62.27 61.49 60.86 63.45 64.04 63.63 63.33 62.85 63.23 64.06 65.23
55.11 54.42 54.39 53.41 52.83 51.71 53.65 56.17 57.28 56.58 54.14 54.49 55.27 53.97 55.79 56.88 55.65 62.07 61.55 63.25 61.29 59.53 58.63 57.22 59.31 60.18 58.59 57.73 54.61 54.32 53.75 54.08 55.33 60.65 62.14 61.10 58.97 61.10 63.85 65.29 64.85 64.04 64.35 64.60 64.49
54.54 54.21 53.67 52.35 51.58 53.31 54.79 57.07 58.18 57.31 52.51 52.55 55.06 56.20 55.69 56.24 52.97 61.89 64.64 64.57 61.82 59.35 59.36 58.40 60.28 56.52 55.12 53.44 53.85 50.39 54.50 55.85 57.75 58.18 55.23 60.55 53.86 59.10 62.24 62.73 64.12 64.98 63.77 63.91 64.57
54.19 53.53 52.84 51.83 52.11 54.26 57.88 58.05 56.80 56.83 42.16 52.88 54.39 56.97 54.63 53.95 55.10 58.08 67.19 62.32 58.58 58.64 56.35 55.41 55.20 55.51 55.04 54.96 54.30 53.31 56.66 56.71 59.62 57.98 57.70 57.27 55.59 57.54 61.40 60.66 62.91 65.04 65.68 65.01 65.12
53.80 52.87 52.32 50.80 50.83 55.47 56.80 57.89 57.17 50.92 44.02 51.84 52.95 52.15 51.92 52.91 53.30 58.64 60.62 62.35 60.22 57.87 58.31 57.85 60.54 58.22 57.76 56.08 54.41 59.36 59.07 57.84 58.19 58.02 52.06 54.74 55.80 56.52 58.36 60.97 63.39 65.41 66.27 66.63 66.43
53.05 51.63 50.92 53.60 56.22 56.58 57.12 56.77 51.24 47.00 53.20 49.87 50.94 50.82 51.36 50.87 51.66 55.04 55.87 55.12 54.34 51.61 51.29 52.86 53.38 54.95 55.93 52.95 53.28 56.65 56.33 50.98 50.16 51.16 49.70 53.14 55.24 56.96 60.17 62.74 64.45 64.93 65.78 67.23 67.94
51.27 50.77 51.24 53.14 55.20 55.49 56.72 55.43 46.74 49.58 51.67 55.41 50.04 49.03 49.51 50.37 50.82 51.54 53.99 53.55 55.67 54.83 52.56 49.20 49.07 52.56 53.63 54.04 52.41 53.50 52.34 48.57 43.35 46.37 49.01 52.79 51.86 57.44 60.14 61.45 64.85 66.81 67.14 67.48 67.76
50.62 51.92 51.52 55.06 54.79 55.28 56.56 50.09 49.80 51.18 54.14 53.00 49.28 48.78 48.57 49.31 50.21 51.15 51.15 51.27 54.14 55.86 51.53 50.56 49.22 53.64 53.72 54.30 53.75 50.63 49.48 51.80 49.79 50.74 51.49 53.78 55.61 58.19 59.48 60.91 62.24 63.76 65.89 66.50 67.44
53.33 56.10 56.32 55.89 55.76 55.34 55.02 46.49 50.03 53.30 54.87 53.65 51.18 51.38 49.38 48.98 48.83 49.88 50.82 53.77 51.80 55.48 58.09 52.72 48.81 52.83 52.60 54.64 53.48 52.58 53.77 50.55 53.26 47.41 46.17 50.59 51.60 53.62 57.20 59.05 61.49 63.07 64.30 65.97 68.06
55.78 56.41 57.21 56.43 55.25 55.99 51.68 51.19 51.04 53.93 54.96 53.17 52.65 52.07 52.61 51.20 49.40 49.61 50.94 53.05 54.54 53.40 57.28 53.93 51.92 52.45 54.41 53.40 53.00 51.81 51.86 50.71 53.56 52.45 48.87 47.16 50.49 58.08 58.54 60.76 60.96 63.18 65.41 66.66 67.47
54.95 52.82 57.71 56.37 53.46 50.11 51.22 51.34 49.71 54.58 55.54 54.45 54.00 53.76 52.75 52.13 49.09 48.62 50.89 51.33 53.93 54.66 52.19 55.09 52.94 50.19 51.04 53.96 54.26 54.49 53.06 52.29 49.71 48.45 51.99 51.63 51.36 58.87 59.32 59.45 62.13 63.12 64.79 66.30 68.03
56.79 55.52 58.61 56.92 51.02 52.67 54.28 54.97 55.63 56.92 56.12 54.75 53.16 54.73 54.82 52.89 51.37 49.82 50.38 54.84 52.65 53.48 53.28 52.78 52.58 48.39 49.73 52.12 53.27 53.61 51.22 49.97 53.82 55.08 52.58 50.01 50.78 58.97 60.43 61.37 62.45 62.80 64.17 65.55 67.21
56.57 52.73 57.23 56.43 54.10 53.56 53.95 53.00 54.23 57.21 55.74 55.98 55.62 56.18 54.61 54.46 54.42 53.92 54.51 56.70 56.60 54.08 59.99 57.36 50.84 51.00 48.52 51.91 52.95 52.17 51.04 53.23 52.14 51.49 52.62 53.00 53.20 56.78 59.15 60.03 61.31 62.24 63.19 64.24 65.43
50.19 48.42 49.03 52.23 52.24 50.30 52.00 51.73 51.92 52.03 55.68 56.21 55.65 53.61 53.23 53.50 53.54 52.80 55.24 55.82 56.97 59.35 53.93 53.54 51.15 51.18 52.06 51.04 51.64 51.70 52.19 51.42 52.25 52.07 51.19 52.08 53.80 56.76 60.29 60.92 61.82 62.81 63.57 64.01 64.52
48.53 49.06 50.71 48.43 47.60 49.81 46.43 48.06 48.22 49.08 51.75 53.03 51.45 51.82 54.35 52.31 51.51 50.71 52.08 54.54 53.43 56.85 54.11 53.36 53.38 51.68 50.91 50.46 50.72 50.22 52.29 52.03 51.38 50.29 53.08 52.50 52.88 58.48 60.79 62.92 62.28 62.69 64.24 64.72 65.89
48.43 49.21 49.30 43.94 47.02 48.57 45.10 46.15 46.76 48.53 53.09 52.04 49.64 50.67 53.14 48.35 48.42 50.31 52.14 54.66 55.21 54.48 53.92 52.39 51.78 51.54 49.83 49.79 50.96 48.86 52.29 52.35 52.57 53.01 54.33 52.41 55.63 59.61 59.12 61.01 62.33 63.36 65.20 66.27 67.61
MSLP
1013.11 1012.86 1012.65 1012.53 1012.38 1012.22 1012.13 1012.08 1011.92 1011.91 1011.75 1011.60 1011.37 1011.10 1010.89 1010.75 1010.60 1010.62 1009.24 1007.71 1007.68 1007.93 1008.10 1008.43 1008.69 1009.03 1009.31 1009.20 1009.34 1009.26 1008.53 1007.93 1007.63 1007.47 1007.38 1007.59 1007.93 1009.09 1009.50 1009.79 1010.39 1010.96 1011.43 1012.03 1013.60
1013.14 1012.88 1012.67 1012.45 1012.28 1012.14 1012.03 1012.00 1011.86 1011.82 1011.70 1011.57 1011.33 1011.06 1010.91 1010.83 1010.28 1009.12 1007.54 1007.57 1007.52 1007.54 1007.86 1008.41 1008.82 1009.15 1009.18 1009.23 1009.36 1008.96 1008.31 1007.76 1007.42 1007.18 1007.02 1007.32 1007.65 1008.54 1009.44 1009.87 1010.61 1011.30 1011.91 1012.87 1013.82
1013.12 1012.83 1012.61 1012.40 1012.20 1012.06 1011.97 1011.90 1011.83 1011.74 1011.64 1011.52 1011.33 1011.12 1010.91 1010.74 1009.51 1007.09 1006.98 1007.19 1007.56 1007.50 1007.86 1008.42 1008.70 1008.85 1008.50 1008.86 1009.06 1008.63 1008.01 1007.65 1007.12 1006.87 1006.52 1007.13 1007.79 1008.32 1008.93 1009.55 1010.14 1011.01 1012.15 1013.24 1013.79
1013.17 1012.87 1012.54 1012.30 1012.09 1011.93 1011.81 1011.77 1011.73 1011.60 1011.50 1011.40 1011.31 1011.14 1010.92 1010.45 1008.82 1007.05 1006.95 1007.09 1007.55 1007.51 1007.93 1008.42 1008.57 1008.67 1008.78 1008.38 1008.24 1008.09 1007.70 1007.49 1007.04 1006.79 1006.60 1007.13 1007.79 1008.61 1009.07 1009.15 1009.73 1010.98 1011.89 1012.99 1013.66
1013.18 1012.83 1012.49 1012.20 1011.98 1011.81 1011.68 1011.63 1011.61 1011.52 1011.36 1011.33 1011.22 1011.11 1010.93 1009.67 1007.63 1007.18 1007.12 1007.23 1007.53 1007.67 1007.63 1008.10 1008.45 1008.57 1008.57 1008.57 1008.44 1008.00 1007.23 1006.92 1006.67 1006.72 1006.78 1007.36 1008.05 1008.78 1009.72 1009.92 1010.66 1011.39 1012.29 1013.13 1013.68
1013.12 1012.78 1012.44 1012.09 1011.79 1011.62 1011.53 1011.50 1011.47 1011.40 1011.26 1011.16 1011.04 1010.98 1010.37 1008.47 1006.96 1006.97 1007.07 1007.72 1007.68 1007.76 1007.96 1008.10 1007.92 1008.22 1008.18 1008.08 1007.92 1007.23 1006.94 1006.51 1006.08 1006.10 1006.72 1007.49 1008.54 1009.14 1010.42 1010.82 1011.31 1011.85 1012.51 1013.17 1013.54
1013.12 1012.73 1012.35 1012.02 1011.63 1011.43 1011.38 1011.38 1011.30 1011.19 1011.08 1010.96 1010.87 1010.67 1009.62 1007.94 1007.04 1007.07 1007.21 1007.54 1007.68 1007.66 1007.84 1007.71 1007.83 1007.97 1007.80 1007.55 1007.36 1006.94 1006.51 1006.18 1006.15 1006.38 1006.77 1007.31 1008.65 1010.17 1010.89 1011.36 1011.84 1012.33 1012.88 1013.42 1013.68
1013.04 1012.64 1012.25 1011.92 1011.54 1011.28 1011.20 1011.22 1011.11 1010.96 1010.82 1010.79 1010.67 1010.28 1008.51 1007.27 1007.07 1007.06 1007.07 1007.68 1007.89 1007.81 1007.71 1007.73 1008.09 1007.94 1007.56 1007.13 1006.90 1006.59 1006.51 1005.96 1006.25 1006.26 1007.03 1007.33 1008.93 1010.48 1011.17 1011.71 1012.13 1012.55 1013.35 1013.57 1013.96
1012.96 1012.55 1012.10 1011.78 1011.45 1011.21 1011.05 1010.96 1010.75 1010.68 1010.61 1010.57 1010.33 1009.42 1007.92 1007.50 1007.13 1007.03 1007.04 1007.28 1007.62 1007.96 1007.54 1007.19 1007.65 1007.74 1007.45 1006.86 1006.49 1006.14 1005.72 1005.75 1006.05 1006.27 1006.59 1007.40 1008.82 1010.47 1011.18 1011.79 1012.24 1012.56 1013.04 1013.49 1013.96
1012.87 1012.47 1012.01 1011.65 1011.30 1011.09 1010.79 1010.56 1010.45 1010.53 1010.51 1010.18 1009.47 1008.79 1007.24 1006.85 1006.80 1007.16 1007.24 1007.31 1007.12 1007.29 1007.37 1007.33 1007.53 1007.35 1007.01 1006.35 1005.77 1005.68 1005.56 1005.73 1005.76 1006.26 1006.61 1007.48 1008.70 1010.22 1011.00 1011.60 1012.06 1012.43 1012.75 1013.11 1013.51
1012.69 1012.30 1011.87 1011.49 1011.23 1011.00 1010.78 1010.32 1010.51 1010.17 1009.46 1007.97 1007.39 1006.96 1006.41 1006.46 1006.16 1007.11 1007.14 1006.63 1006.70 1007.09 1007.00 1007.31 1006.81 1006.06 1005.62 1005.97 1005.84 1005.77 1005.53 1005.50 1005.75 1005.99 1006.51 1007.32 1008.42 1009.64 1010.60 1011.27 1011.69 1012.03 1012.41 1012.60 1012.76
1012.45 1012.06 1011.64 1011.26 1011.09 1010.96 1010.93 1009.32 1007.63 1007.30 1007.29 1006.99 1006.74 1006.45 1006.34 1006.11 1006.50 1007.57 1007.29 1007.12 1006.63 1006.54 1006.58 1006.72 1006.01 1005.34 1005.64 1005.58 1005.41 1005.46 1005.30 1005.18 1005.66 1005.91 1006.28 1007.35 1008.21 1009.15 1009.90 1010.35 1010.86 1011.24 1011.69 1012.05 1012.46
1012.13 1011.76 1011.38 1011.02 1010.68 1010.87 1009.91 1007.87 1006.97 1006.80 1006.45 1006.20 1005.92 1005.50 1005.33 1005.58 1005.44 1006.44 1006.77 1006.37 1006.40 1006.58 1006.35 1006.26 1005.11 1004.94 1005.04 1004.92 1005.03 1004.91 1004.71 1004.87 1005.28 1005.98 1006.43 1006.94 1007.86 1008.74 1009.36 1009.88 1010.41 1010.89 1011.17 1011.52 1011.94
1011.76 1011.47 1011.14 1010.84 1011.08 1009.87 1008.59 1007.00 1006.84 1006.67 1005.96 1005.44 1005.18 1004.33 1004.79 1004.82 1005.07 1005.34 1005.75 1005.70 1006.01 1006.01 1006.08 1005.93 1004.98 1004.67 1004.40 1004.09 1004.15 1003.94 1004.23 1004.65 1005.03 1005.50 1005.71 1006.53 1006.44 1007.63 1008.29 1008.89 1009.34 1009.73 1010.32 1010.77 1011.28
1011.44 1011.15 1010.92 1010.86 1010.14 1009.11 1007.46 1007.00 1006.64 1006.43 1005.11 1004.58 1004.28 1004.19 1004.26 1004.34 1004.40 1005.27 1005.34 1005.35 1005.08 1005.31 1005.73 1004.76 1004.24 1003.94 1003.86 1003.69 1003.89 1004.19 1004.42 1004.56 1004.94 1005.30 1005.77 1006.02 1006.25 1006.30 1007.27 1007.59 1007.81 1008.51 1009.03 1009.65 1010.37
1010.86 1010.72 1010.59 1010.54 1010.34 1007.92 1007.40 1006.98 1006.53 1005.82 1004.26 1003.79 1003.56 1003.75 1003.92 1003.92 1004.00 1004.61 1004.97 1005.08 1004.85 1004.95 1004.68 1004.11 1003.88 1003.67 1003.01 1003.05 1003.32 1003.87 1004.03 1004.47 1004.90 1005.00 1004.93 1005.41 1005.64 1004.89 1005.71 1005.33 1006.18 1007.26 1007.96 1008.72 1009.42
1009.98 1010.01 1010.18 1009.40 1008.23 1007.56 1007.24 1006.70 1005.82 1004.56 1003.92 1003.31 1002.91 1003.01 1002.93 1003.26 1003.67 1003.66 1004.01 1004.51 1004.33 1004.40 1003.99 1003.57 1002.90 1002.49 1002.64 1002.77 1003.33 1003.36 1003.21 1003.73 1004.10 1004.34 1004.16 1005.09 1004.97 1003.27 1004.13 1004.52 1004.89 1005.94 1007.09 1007.95 1008.67
1009.00 1008.73 1008.76 1008.59 1008.02 1007.71 1006.78 1005.91 1004.89 1003.82 1003.05 1002.55 1002.43 1002.73 1002.57 1002.70 1003.05 1003.45 1003.48 1003.66 1004.13 1004.07 1003.87 1003.05 1002.12 1001.85 1002.09 1001.70 1001.77 1002.42 1002.43 1002.38 1002.70 1003.43 1003.63 1004.65 1003.77 1002.88 1003.59 1004.02 1004.54 1005.06 1006.12 1007.11 1007.92
1008.27 1008.25 1008.36 1007.63 1007.75 1007.83 1006.39 1005.20 1004.04 1003.36 1002.57 1002.20 1002.28 1002.23 1002.35 1002.39 1002.56 1002.96 1003.08 1002.76 1002.67 1003.08 1003.09 1002.75 1001.81 1001.27 1001.19 1001.24 1001.49 1002.16 1002.41 1002.44 1002.53 1003.76 1003.48 1003.26 1002.88 1002.92 1003.50 1004.11 1004.75 1005.18 1005.69 1006.25 1006.85
1007.72 1007.16 1007.26 1007.21 1007.40 1007.04 1005.81 1004.71 1003.98 1003.24 1002.48 1002.04 1001.54 1001.61 1001.63 1001.99 1002.37 1002.56 1002.59 1001.75 1001.76 1002.12 1002.13 1002.66 1001.99 1001.20 1001.05 1001.35 1001.62 1001.48 1001.94 1002.08 1002.13 1002.44 1002.43 1002.45 1002.70 1002.36 1003.20 1003.78 1004.42 1004.90 1005.23 1005.57 1006.14
1007.24 1006.60 1007.19 1007.12 1007.06 1006.06 1005.20 1004.59 1003.81 1002.99 1002.61 1001.93 1001.68 1001.76 1001.75 1001.88 1002.03 1001.96 1001.66 1001.32 1001.31 1001.78 1002.15 1002.32 1002.49 1001.28 1001.09 1000.74 1000.74 1001.55 1001.52 1001.95 1002.12 1002.36 1001.90 1001.98 1001.60 1002.06 1002.82 1003.46 1003.95 1004.71 1005.24 1005.62 1006.07
1006.80 1006.56 1006.86 1006.83 1006.36 1006.38 1005.21 1004.64 1004.14 1003.17 1002.80 1002.29 1002.00 1001.85 1001.86 1001.98 1001.98 1001.92 1001.34 1001.06 1001.09 1001.48 1002.10 1002.33 1001.91 1001.24 1000.80 1000.86 1001.06 1000.72 1000.96 1001.04 1001.17 1002.09 1002.42 1002.14 1001.72 1002.45 1003.24 1003.51 1004.20 1004.82 1005.32 1005.76 1006.14
1007.44 1007.07 1006.62 1006.41 1006.26 1006.07 1005.51 1004.90 1004.44 1003.87 1003.52 1003.08 1002.60 1002.47 1002.35 1002.32 1002.48 1002.15 1001.65 1001.27 1001.35 1001.32 1001.43 1001.99 1001.58 1001.07 1000.37 1000.64 1000.81 1000.35 1000.81 1001.03 1000.95 1001.19 1001.44 1001.23 1001.40 1002.65 1003.42 1003.75 1004.26 1004.74 1005.23 1005.79 1006.29
1007.92 1007.59 1006.85 1006.82 1007.36 1006.46 1005.95 1005.74 1005.01 1004.72 1004.41 1004.17 1003.66 1003.22 1003.06 1003.00 1002.94 1002.43 1002.00 1001.76 1001.78 1001.58 1001.60 1001.59 1001.10 1000.32 999.76 999.60 1000.01 1000.22 1000.53 1000.79 1000.74 1000.22 1000.71 1000.59 1000.75 1001.96 1002.89 1003.60 1004.29 1004.79 1005.43 1005.84 1006.26
1009.20 1010.12 1009.96 1008.61 1008.06 1007.54 1006.98 1006.91 1006.22 1005.75 1005.41 1005.06 1004.61 1004.70 1004.46 1003.88 1003.54 1003.55 1003.05 1002.33 1001.91 1002.25 1002.16 1001.79 1000.79 1000.77 1000.19 1000.17 1000.18 1000.03 1000.13 1000.34 1000.13 1000.35 1000.08 999.94 1000.36 1000.58 1001.47 1002.76 1003.80 1004.52 1005.24 1005.72 1006.16
1011.17 1011.38 1010.82 1010.13 1009.42 1008.37 1008.17 1008.26 1007.77 1007.31 1006.82 1006.15 1006.16 1005.92 1005.38 1005.35 1005.82 1005.31 1004.79 1003.61 1003.07 1002.55 1002.15 1002.28 1001.30 1000.99 1000.40 1000.27 1000.33 1000.13 1000.07 1000.08 1000.13 1000.25 1000.24 1000.22 1000.17 1000.50 1001.36 1002.72 1003.73 1004.25 1004.86 1005.26 1005.69
1013.43 1013.02 1012.08 1011.47 1010.23 1009.50 1009.87 1009.46 1009.00 1008.65 1007.89 1007.58 1007.30 1006.68 1006.26 1006.78 1006.76 1006.06 1005.62 1004.62 1004.07 1003.74 1002.92 1002.65 1002.01 1001.43 1000.71 1000.70 1000.38 1000.21 999.71 999.85 999.91 1000.05 999.70 999.75 999.69 1000.68 1001.62 1002.32 1003.21 1004.06 1004.54 1004.88 1005.39
Wind_Speed
14 12 10 9 8 7 6 6 6 6 7 7 7 8 8 9 6 3 6 4 7 13 10 11 6 7 6 1 1 1 2 3 3 2 3 12 7 6 5 15 4 2 9 16 21
15 13 11 10 8 7 7 6 6 6 5 6 6 8 8 8 1 7 3 7 12 18 12 12 6 3 3 2 0 2 2 2 1 3 2 13 10 10 7 13 7 12 16 22 21
16 15 13 11 9 7 7 6 5 6 5 5 6 7 7 6 3 2 15 13 18 15 7 5 4 2 3 7 3 0 2 1 1 5 4 11 9 5 13 7 9 17 22 22 22
16 16 14 12 10 8 7 6 5 5 5 5 5 6 7 3 2 4 16 19 15 11 8 6 2 4 4 5 4 4 3 4 2 3 4 10 9 6 1 1 11 19 25 23 21
17 16 15 13 11 9 7 6 5 6 5 5 5 5 2 2 3 5 16 18 17 12 12 7 6 4 2 3 2 4 2 3 6 4 7 9 6 6 3 5 17 21 23 20 20
18 16 15 13 11 9 7 6 5 5 5 5 5 4 2 3 3 16 16 17 12 10 8 6 4 2 3 2 4 4 6 7 3 8 9 9 6 0 6 11 16 19 21 17 20
18 17 16 14 12 10 7 6 6 5 5 5 4 3 1 4 2 13 17 11 12 5 10 5 4 4 2 3 7 3 3 6 7 9 6 12 7 7 8 13 16 17 17 17 17
19 18 16 15 13 11 8 6 6 5 5 5 4 2 2 4 10 12 11 8 9 5 2 2 1 5 3 5 2 2 1 2 3 6 5 4 5 7 11 12 14 16 14 14 16
19 18 17 15 13 11 9 7 8 4 3 4 3 2 6 3 5 4 5 5 9 6 3 7 1 3 3 3 3 0 3 2 4 1 7 1 6 10 12 10 12 15 16 14 14
17 17 17 15 13 11 12 3 6 6 3 4 3 3 4 5 5 6 0 8 5 2 2 4 3 4 4 3 5 5 3 1 3 9 4 4 6 12 12 11 12 14 14 16 16
18 17 15 14 12 10 4 4 4 3 3 4 1 1 4 4 4 2 3 3 2 5 2 2 4 9 8 4 5 5 7 7 3 6 6 5 9 14 13 11 13 14 15 16 17
18 17 14 15 11 6 3 4 2 3 1 5 2 4 3 3 6 9 9 2 0 2 1 3 7 12 5 7 8 7 8 5 3 7 6 6 9 12 14 14 14 16 17 18 16
19 17 14 14 6 5 3 6 2 1 1 1 3 4 4 8 4 14 18 5 4 5 8 8 9 7 4 10 6 4 5 3 3 6 4 9 6 11 11 10 12 14 15 17 18
20 17 13 14 3 2 5 1 4 4 1 3 4 3 5 6 4 8 16 6 5 8 9 9 7 3 2 8 3 4 5 5 10 8 1 4 1 10 12 15 14 16 16 18 20
20 17 10 5 2 4 3 5 5 3 3 4 4 3 3 6 7 5 13 4 9 6 5 3 5 11 12 7 4 5 7 7 9 5 3 5 5 6 12 14 18 17 18 19 19
20 16 8 2 3 6 4 3 2 4 3 5 6 7 6 2 2 6 7 5 1 5 5 14 6 8 6 2 4 13 12 10 4 1 5 1 5 4 9 17 15 17 18 18 18
19 14 5 3 1 2 1 4 2 3 1 6 6 7 7 7 5 5 10 12 7 5 5 5 10 5 5 6 6 4 8 3 2 3 3 1 6 9 8 8 13 19 18 18 18
23 11 10 4 2 5 3 2 3 0 3 1 3 4 9 10 6 5 5 9 6 5 6 4 2 3 5 4 4 12 5 3 3 3 1 3 6 0 2 4 8 14 17 17 17
16 3 5 4 8 2 3 2 3 4 1 1 3 5 5 4 4 6 10 11 9 15 8 3 6 3 3 3 3 6 5 3 7 1 3 1 4 8 7 8 10 13 15 19 20
1 3 3 3 8 3 2 2 3 4 3 3 2 5 8 5 9 8 8 5 10 15 15 2 5 1 2 3 6 4 7 4 2 3 3 2 5 5 4 10 12 13 15 16 17
1 4 8 6 4 1 3 4 4 5 5 2 2 2 4 5 8 8 7 5 9 10 15 8 3 3 7 3 4 5 4 6 4 3 2 3 3 2 4 8 13 9 9 11 14
1 4 3 3 2 1 3 3 2 2 3 3 2 4 4 6 6 6 9 5 7 13 13 10 4 6 6 1 1 1 2 5 4 5 1 2 3 1 4 3 7 9 8 7 9
3 2 2 3 3 2 1 1 1 6 6 5 3 1 1 1 4 5 4 3 8 10 10 11 8 6 5 4 4 4 4 1 5 4 7 4 1 3 4 6 5 10 9 10 10
2 3 3 4 2 2 2 4 3 5 2 4 6 2 1 1 1 2 2 1 1 3 3 9 5 8 7 2 2 3 5 6 4 4 6 6 2 5 9 9 8 9 10 10 10
6 3 2 3 5 7 2 3 4 7 6 10 3 9 4 2 2 5 7 5 5 3 4 8 6 7 4 3 3 2 4 8 7 2 6 2 6 4 14 15 12 12 12 13 11
4 3 1 3 3 2 7 5 6 5 7 5 6 10 9 5 4 4 8 2 2 6 3 3 3 4 2 2 0 4 6 4 5 3 8 2 7 3 4 12 13 13 13 13 13
4 1 3 4 4 1 4 3 6 6 3 7 7 6 3 4 10 13 12 12 6 4 2 2 2 4 5 1 4 6 11 10 4 5 6 8 6 7 8 15 17 14 12 13 14
Wind_Direction
359 358 351 344 336 330 324 316 309 307 308 322 318 316 320 323 311 166 231 244 175 169 159 143 120 126 148 165 71 305 71 41 71 43 14 155 137 106 89 140 136 122 148 146 149
358 357 352 345 338 329 321 317 313 308 314 309 311 313 322 341 337 238 273 181 171 161 163 165 149 154 190 122 169 285 71 40 345 326 260 178 152 136 135 142 113 92 113 137 149
358 357 354 347 340 330 322 317 311 306 307 303 306 313 320 319 239 249 164 173 160 164 144 138 118 234 210 168 149 111 97 155 20 344 217 162 142 120 146 185 169 152 146 152 159
355 356 353 349 341 332 325 317 311 306 300 299 299 307 316 276 87 36 163 155 160 162 149 138 91 20 16 337 0 356 243 246 274 20 107 155 140 104 139 100 155 154 155 154 162
353 353 353 350 343 332 320 313 310 305 298 288 286 298 242 115 312 159 154 158 160 168 173 164 167 168 216 219 196 240 262 230 237 245 112 109 95 108 45 72 136 145 153 156 163
351 351 351 348 342 333 321 308 304 297 287 271 281 289 213 104 311 159 146 159 168 166 178 182 211 249 309 255 236 302 284 298 337 183 138 120 92 121 71 126 139 153 157 158 166
350 348 348 347 340 332 321 308 300 288 273 265 264 253 132 72 181 152 150 177 168 139 178 242 261 234 302 234 248 285 344 119 112 128 117 128 73 78 117 135 143 157 158 162 168
348 347 346 345 340 332 321 305 293 271 252 246 239 221 115 287 153 154 153 142 179 226 356 211 62 277 253 327 267 288 228 134 152 144 141 206 118 134 145 143 152 163 162 173 176
347 346 344 343 339 334 321 296 277 237 218 195 206 244 134 181 156 172 152 174 181 216 288 314 132 256 214 260 198 350 91 106 168 227 155 249 126 153 151 159 162 171 171 183 179
345 346 342 339 338 336 324 225 131 139 212 216 247 236 146 161 155 144 312 151 183 150 206 242 222 222 201 221 359 334 330 159 180 192 171 162 117 156 168 173 174 178 183 183 182
344 344 340 336 335 336 328 157 180 149 217 222 192 2 100 100 110 91 196 272 134 170 168 162 287 279 295 267 295 291 286 283 255 163 178 189 157 171 173 181 182 188 192 194 196
341 343 338 332 324 305 270 223 241 28 244 217 252 274 201 203 116 135 159 210 140 319 9 268 275 293 255 279 268 251 269 288 186 149 187 162 158 177 182 192 197 194 195 197 197
340 341 337 334 331 146 239 233 89 321 245 186 188 197 173 178 158 174 174 194 200 199 223 225 266 324 243 287 262 237 238 180 112 138 72 149 162 187 203 207 200 208 209 199 198
337 338 338 334 212 146 235 282 279 214 230 167 190 190 148 153 185 160 186 172 204 220 234 248 274 269 226 304 267 342 219 160 145 181 232 229 296 205 194 209 212 205 202 205 202
333 332 327 317 332 215 41 347 146 200 133 149 138 118 150 190 133 157 188 201 213 194 204 265 284 296 297 288 201 1 130 132 140 140 266 196 265 113 190 211 214 211 207 206 201
328 326 324 148 218 258 318 300 224 226 138 165 143 164 161 172 137 120 167 236 318 228 247 266 264 269 247 194 221 138 107 98 112 212 256 72 248 186 181 218 207 204 206 207 205
322 315 254 195 46 350 300 174 220 236 26 163 185 174 191 168 158 182 168 182 206 210 254 276 230 208 185 183 132 176 189 124 143 212 283 54 222 273 188 200 197 192 197 201 204
324 311 195 222 310 325 203 168 241 307 235 120 136 116 196 170 187 158 161 217 187 194 280 301 211 209 161 254 172 186 263 217 194 222 47 144 231 168 73 218 167 179 184 189 198
317 139 137 232 213 286 191 180 236 203 225 205 127 159 211 216 224 178 203 234 228 189 213 230 247 246 145 225 207 163 208 53 111 107 259 1 264 237 227 161 155 160 174 187 194
166 154 44 39 165 189 163 232 252 230 271 210 171 206 194 196 190 193 189 209 219 200 205 165 291 357 36 161 71 267 126 170 175 178 249 212 280 273 162 187 187 185 195 196 197
224 92 7 118 184 195 179 213 261 249 252 236 181 188 221 204 213 194 204 217 205 189 201 178 216 257 303 242 167 153 209 70 99 314 251 275 243 193 262 206 199 190 190 189 193
23 83 133 267 102 349 150 190 319 326 26 295 265 235 225 180 196 225 228 256 157 142 177 202 221 249 264 202 294 181 273 197 234 185 312 316 265 49 301 207 183 159 159 159 173
67 86 116 260 132 136 114 74 330 359 12 354 313 300 353 179 210 215 207 354 155 164 167 172 221 252 250 154 181 207 165 159 116 146 188 217 218 61 131 137 153 163 161 153 150
85 107 43 58 23 28 72 17 350 5 110 2 356 0 352 134 5 127 65 90 331 189 138 171 173 216 231 221 106 192 175 167 278 204 153 238 274 180 182 173 171 168 162 154 161
15 73 4 35 47 55 47 9 9 10 4 18 44 24 308 3 46 30 5 352 69 92 121 214 237 204 240 230 212 183 201 192 202 262 249 9 230 193 199 181 173 156 154 152 159
50 5 38 55 333 44 16 34 24 351 351 30 35 339 18 67 32 326 353 332 28 337 68 111 282 185 198 80 150 261 233 235 216 197 249 268 273 218 148 158 167 171 167 157 160
16 38 292 4 24 41 37 5 14 334 154 59 346 327 11 8 298 270 258 271 288 325 334 289 197 233 206 157 136 251 233 214 205 205 225 208 243 165 166 180 176 171 172 156 153